SL-8 DEB, 27747

Orbit data source: Space-Track

SL-8 DEB, 27747 is space debris in LEO originally from a launch on Tue, 12 Feb 1991 UTC launched from the Plesetsk Missile And Space Complex (PKMTR). Debris objects in space refer to the collection of defunct objects orbiting the Earth. Examples of debris include non-operational satellites, rocket bodies, and fragments generated from explosions, collisions, or faulty payload assembly.

Loading next visibility...
Identifier
27747, 1991-009DC
Orbit
LEO
Country
Flag of CISCIS
Related business
Manufacturer
Unknown
Mission
Spacecraft
Bus & Motor
Unknown
Mass
Unknown
Launch date (UTC)
1991-02-12 (35 years ago)
Launch vehicle
Unknown
Launch site
Plesetsk Missile And Space Complex (PKMTR)
Object type
Payload
Rocket body
Debris
Shape & HBR
Unknown shape, 1.1 m
Radar Cross Section
Medium (>0.1 m² and <1 m²)

Expand to show TLE details & history
Last TLE update: 2 days ago

TLE from 2 days ago
0 SL-8 DEB
1 27747U 91009DC  26171.40293946  .00000132  00000-0  13958-2 0  9994
2 27747  73.9621 165.4527 0086120 122.1958  29.1452 12.20017176261405
Epoch: 2026-06-20T09:40Z
TLE epoch observation values (Epoch: 2026-06-20T09:40:13.969Z)
Latitude
27.02674°
Longitude
-76.61428°
Altitude
1,535.429 km
Speed
7.127 km/s
True Right ascension
22h 28m 14s
True Declination
26° 54' 05"
Sunlit
Object was in daylight at epoch
Visualization orbit readout
Latitude
Unknown
Longitude
Unknown
Altitude
Unknown
Speed
Unknown
Apparent Right ascension
Unknown
Apparent Declination
Unknown
Sunlit
N/A
Visualization observer readout
Local Sidereal Time
23:21:47
Azimuth
Unknown
Elevation
Unknown
Doppler factor
Unknown
Orbital elements
Apogee altitude
1,658.966 km
Perigee altitude
1,521.717 km
Semi-major axis
7,968.479 km
Eccentricity
0.00861
Inclination
73.9621°
RAAN
165.4527°
Arg. of periapsis
122.1958°
True anomaly
29.63038°
Mean anomaly
29.1452°
Eccentric anomaly
29.38733°
Mean motion
3.05127 °/min
Orbital period
117.98 mins
BSTAR
0.0013958
Loading maneuver chart data...
Computing Atmospheric mass density...
Loading historical data...
Loading historical data...
Loading historical data...
Loading historical data...
Loading historical data...
Loading historical data...
Loading historical data...

Documentation

Showing up to 5 results
|